Location: Heiligenberg
(48.5381°N, 7.3897°E)
Time: 22:38:00
(UTC+00:00)

NOSS 0 Rocket - Pass Details

Date: 26 May 2022
Orbit: 936 x 954 km, 70.0° (Epoch: 02 July)

Event Time Altitude Azimuth Distance (km) Brightness Sun altitude
Exits shadow 00:29:25 32° 206° (SSW) 1,580 4.5 -19.0°
Maximum altitude 00:32:32 88° 121° (ESE) 961 3.9 -18.9°
Drops below altitude 10° 00:38:49 10° 30° (NNE) 2,690 7.5 -18.6°
Sets 00:41:21 0° 31° (NNE) 3,638 8.5 -18.4°
